Regional Weather Roundup
Issued by NWS Jackson, KY

Home | Current Version | Previous Version | Text Only | Print | Product List | Glossary Off
Versions: 1 2 3 4 5 6 7 8 9 10 11 12 13 14 15 16 17 18 19 20 21 22 23 24 25 26 27 28 29 30 31 32 33 34 35 36 37 38 39 40 41 42 43 44 45 46 47 48 49 50

000
ASUS43 KJKL 160311
RWRJKL

EAST KENTUCKY HOURLY WEATHER ROUNDUP
NATIONAL WEATHER SERVICE JACKSON KY
1100 PM EDT TUE APR 15 2014

NOTE: "FAIR" INDICATES FEW OR NO CLOUDS BELOW 12,000 FEET WITH
NO SIGNIFICANT WEATHER AND/OR OBSTRUCTIONS TO VISIBILITY.

* THESE REPORTS ARE NOT UNDER NWS QUALITY CONTROL AND MAY NOT
  REPORT WEATHER SUCH AS PRECIPITATION AND FOG.

KYZ079-080-083-085-087-088-110-112-115-119-120-160400
...EASTERN KENTUCKY...

CITY           SKY/WX    TMP DP  RH WIND       PRES   REMARKS
JACKSON        PTCLDY    32  21  64 NE3       30.19R
LONDON         CLEAR     34  22  61 N5        30.20R WCI  30
SOMERSET*      CLEAR     34  21  60 NE7       30.23R WCI  28
MONTICELLO*    CLEAR     33  24  70 NE7       30.22R WCI  27
MIDDLESBORO*   PTCLDY    36  23  60 N7        30.17F WCI  30
HARLAN APT*    CLOUDY    34  21  60 NE6       30.16S WCI  29
BLACK MTN*       N/A     19  19 100 N6          N/A  WCI  11
PIKEVILLE APT* PTCLDY    32  19  59 N6        30.18S WCI  26
BIG SANDY*     CLEAR     32  20  62 CALM      30.20S
MOREHEAD APT*  MOCLDY    34  19  55 N6        30.25R WCI  29
$$

KYZ035-036-041-042-044-050-067-078-099-160400
...CENTRAL KENTUCKY...

CITY           SKY/WX    TMP DP  RH WIND       PRES   REMARKS
MT STERLING*   CLEAR     32  23  69 NE5       30.24R WCI  27
FLEMING/MASON* CLEAR     32  19  59 N6        30.25R WCI  26
DANVILLE*      CLEAR     30  25  80 NE3       30.23R
RICHMOND*      CLEAR     32  21  64 NE5       30.22R WCI  27
LEXINGTON      CLEAR     33  20  58 N8        30.23R WCI  26
FRANKFORT      CLEAR     33  20  58 N3        30.23R
$$

KYZ091>093-OHZ055-061-077-WVZ005-015-034-035-042-160400
...SOUTHERN OHIO/WEST VIRGINIA...

CITY           SKY/WX    TMP DP  RH WIND       PRES   REMARKS
COVINGTON      CLEAR     31  19  61 N6        30.24R WCI  25
COLUMBUS       CLEAR     32  15  49 NW8       30.24R WCI  25
DAYTON         CLEAR     29  17  61 N6        30.26R WCI  23
WILMINGTON     CLEAR     29  16  58 N5        30.24R WCI  24
HUNTINGTON     PTCLDY    32  20  61 N7        30.23R WCI  26
CHARLESTON     CLOUDY    34  19  54 NW7       30.21R WCI  28
PINEVILLE*     CLOUDY    34  22  63 MISG      30.20R
BECKLEY        CLOUDY    27  16  63 NW17G25   30.10R WCI  14
BLUEFIELD      CLOUDY    29  16  58 NW16G26   30.07R WCI  17
$$

VAZ002-007-008-TNZ017-027-036-066-071-160400
...SOUTHWEST VIRGINIA/EAST TENNESSEE...

CITY           SKY/WX    TMP DP  RH WIND       PRES   REMARKS
WISE*          CLOUDY    30  19  64 N10G16    30.11F WCI  21
ABINGDON*      CLOUDY    33  19  55 N12G21    30.12S WCI  25
BRISTOL        CLOUDY    35  19  52 N12       30.14F WCI  27
KNOXVILLE      MOCLDY    39  24  55 NE15      30.15R WCI  31
OAK RIDGE      CLEAR     37  24  59 VRB3      30.18R
CROSSVILLE     CLEAR     36  21  54 N6        30.14R WCI  31
NASHVILLE      CLEAR     39  22  50 N8        30.22R WCI  33
$$

...KEY TO REMARKS...
VSB - VISIBILITY IN MILES
WCI - WIND CHILL INDEX
HX  - HEAT INDEX

$$



USA.gov is the U.S. government's official web portal to all federal, state and local government web resources and services.